FDX5260 RJBB-PANC

Flight info

Callsign FDX5260
Flight time N/A
Altitude 35000
Route TOMOH DOPDA KEC Y43 ISEBI Y81 TASOT Y57 POROT A590 HAMND NEELL7
Aircraft B77L/H-SDE1E2E3FGHIJ2J3J4J5M1RWXY/LB1D1

Departure

Time 2026-04-28 20:08
Airport Kansai International Airport (RJBB)

Arrival

Time N/A
Airport Ted Stevens Anchorage International Airport (PANC)
Time Latitude Longitude Altitude Speed Heading
2026-04-28 19:50 34.43389 135.22558 37 ft 0 kts 231°
2026-04-28 19:54 34.43401 135.22576 37 ft 4 kts 230°
2026-04-28 19:54 34.43417 135.22601 37 ft 4 kts 247°
2026-04-28 19:55 34.43421 135.22631 35 ft 4 kts 289°
2026-04-28 19:55 34.43409 135.22654 36 ft 1 kts 321°
2026-04-28 19:55 34.43408 135.22654 36 ft 0 kts 321°
2026-04-28 19:56 34.43408 135.22655 33 ft 0 kts 321°
2026-04-28 20:00 34.43408 135.22654 33 ft 0 kts 321°
2026-04-28 20:00 34.43420 135.22643 34 ft 2 kts 321°
2026-04-28 20:00 34.43435 135.22629 37 ft 4 kts 322°
2026-04-28 20:00 34.43457 135.22608 38 ft 6 kts 322°
2026-04-28 20:01 34.43498 135.22573 38 ft 6 kts 331°
2026-04-28 20:01 34.43536 135.22567 38 ft 3 kts 13°
2026-04-28 20:01 34.43565 135.22581 38 ft 5 kts 18°
2026-04-28 20:01 34.43603 135.22580 38 ft 6 kts 345°
2026-04-28 20:02 34.43639 135.22554 38 ft 7 kts 324°
2026-04-28 20:02 34.43697 135.22498 38 ft 14 kts 321°
2026-04-28 20:02 34.43770 135.22427 38 ft 12 kts 318°
2026-04-28 20:02 34.43779 135.22344 38 ft 10 kts 243°
2026-04-28 20:03 34.43727 135.22261 38 ft 14 kts 231°
2026-04-28 20:03 34.43657 135.22157 38 ft 18 kts 230°
2026-04-28 20:03 34.43576 135.22036 38 ft 18 kts 231°
2026-04-28 20:03 34.43496 135.21916 38 ft 17 kts 231°
2026-04-28 20:04 34.43424 135.21809 37 ft 16 kts 231°
2026-04-28 20:04 34.43358 135.21710 38 ft 14 kts 231°
2026-04-28 20:04 34.43301 135.21626 38 ft 13 kts 231°
2026-04-28 20:04 34.43231 135.21522 38 ft 19 kts 231°
2026-04-28 20:05 34.43152 135.21403 37 ft 17 kts 231°
2026-04-28 20:05 34.43078 135.21293 38 ft 19 kts 231°
2026-04-28 20:05 34.42992 135.21165 38 ft 18 kts 231°
2026-04-28 20:05 34.42916 135.21052 38 ft 16 kts 231°
2026-04-28 20:06 34.42851 135.20954 38 ft 14 kts 231°
2026-04-28 20:06 34.42795 135.20872 38 ft 11 kts 231°
2026-04-28 20:06 34.42757 135.20803 38 ft 8 kts 249°
2026-04-28 20:06 34.42766 135.20746 37 ft 8 kts 301°
2026-04-28 20:07 34.42813 135.20686 34 ft 11 kts 319°
2026-04-28 20:07 34.42851 135.20658 34 ft 8 kts 339°
2026-04-28 20:07 34.42905 135.20687 34 ft 10 kts 51°
2026-04-28 20:07 34.43019 135.20861 36 ft 59 kts 51°
2026-04-28 20:08 34.43448 135.21494 42 ft 134 kts 51°
2026-04-28 20:08 34.44190 135.22605 40 ft 204 kts 51°
2026-04-28 20:08 34.45217 135.24104 421 ft 242 kts 50°
2026-04-28 20:08 34.46373 135.25565 1311 ft 243 kts 34°
2026-04-28 20:09 34.47948 135.26226 1629 ft 240 kts
2026-04-28 20:09 34.49572 135.25755 2141 ft 246 kts 329°
2026-04-28 20:09 34.50765 135.24323 2712 ft 244 kts 297°
2026-04-28 20:09 34.51175 135.22314 3089 ft 252 kts 266°
2026-04-28 20:10 34.50690 135.20283 3116 ft 257 kts 237°
2026-04-28 20:10 34.49413 135.18778 2868 ft 260 kts 208°
2026-04-28 20:10 34.47845 135.17819 2870 ft 253 kts 213°
2026-04-28 20:10 34.46534 135.16381 2716 ft 253 kts 234°
2026-04-28 20:11 34.45623 135.14647 3283 ft 241 kts 244°
2026-04-28 20:11 34.44811 135.12842 3863 ft 251 kts 234°
2026-04-28 20:11 34.43554 135.11357 4091 ft 253 kts 222°
2026-04-28 20:11 34.42167 135.10031 4166 ft 254 kts 219°
2026-04-28 20:12 34.40735 135.08803 4173 ft 250 kts 218°
2026-04-28 20:12 34.39286 135.07628 4188 ft 251 kts 217°
2026-04-28 20:12 34.37790 135.06523 4198 ft 253 kts 211°
2026-04-28 20:12 34.36748 135.05887 4205 ft 254 kts 210°
2026-04-28 20:13 34.34632 135.04633 4208 ft 253 kts 211°
2026-04-28 20:13 34.33068 135.03668 4208 ft 252 kts 211°
2026-04-28 20:13 34.31507 135.02696 4204 ft 253 kts 211°
2026-04-28 20:13 34.29946 135.01713 4227 ft 251 kts 213°
2026-04-28 20:14 34.28408 135.00734 4356 ft 250 kts 211°
2026-04-28 20:14 34.26834 134.99832 4584 ft 249 kts 209°
2026-04-28 20:14 34.25268 134.98956 4995 ft 247 kts 210°
2026-04-28 20:14 34.23719 134.98063 5646 ft 246 kts 211°
2026-04-28 20:15 34.22176 134.97157 6271 ft 253 kts 211°
2026-04-28 20:15 34.20586 134.96232 6783 ft 253 kts 210°
2026-04-28 20:15 34.18996 134.95318 7280 ft 253 kts 210°
2026-04-28 20:15 34.17388 134.94392 7766 ft 252 kts 211°
2026-04-28 20:16 34.15830 134.93487 8271 ft 252 kts 211°
2026-04-28 20:16 34.14249 134.92569 8784 ft 252 kts 212°
2026-04-28 20:16 34.12673 134.91658 9312 ft 252 kts 212°
2026-04-28 20:16 34.11079 134.90736 9739 ft 257 kts 212°
2026-04-28 20:17 34.09466 134.89801 9878 ft 257 kts 212°
2026-04-28 20:17 34.07859 134.88875 9939 ft 255 kts 212°
2026-04-28 20:17 34.06256 134.87952 9972 ft 254 kts 213°
2026-04-28 20:17 34.04651 134.87054 9983 ft 258 kts 205°
2026-04-28 20:18 34.02787 134.86839 9629 ft 286 kts 177°
2026-04-28 20:18 34.01490 134.87309 9193 ft 305 kts 159°
2026-04-28 20:18 33.99293 134.89646 8685 ft 323 kts 129°
2026-04-28 20:18 33.98099 134.91829 9111 ft 302 kts 127°
2026-04-28 20:19 33.96980 134.93978 9806 ft 305 kts 129°
2026-04-28 20:19 33.96171 134.95380 10165 ft 313 kts 133°
2026-04-28 20:19 33.94823 134.97530 10172 ft 326 kts 133°
2026-04-28 20:19 33.93490 134.99705 10089 ft 319 kts 132°
2026-04-28 20:20 33.92205 135.01851 10039 ft 313 kts 132°
2026-04-28 20:20 33.90928 135.03962 10066 ft 312 kts 133°
2026-04-28 20:20 33.89643 135.06075 10161 ft 313 kts 133°
2026-04-28 20:20 33.88353 135.08203 10391 ft 316 kts 133°
2026-04-28 20:21 33.87070 135.10325 10823 ft 325 kts 133°
2026-04-28 20:21 33.85710 135.12564 11638 ft 338 kts 133°
2026-04-28 20:21 33.84274 135.14924 12193 ft 364 kts 133°
2026-04-28 20:21 33.82723 135.17478 12698 ft 392 kts 133°
2026-04-28 20:22 33.81060 135.20217 13214 ft 418 kts 135°
2026-04-28 20:22 33.78954 135.22680 13687 ft 429 kts 154°
2026-04-28 20:22 33.76283 135.24247 14134 ft 425 kts 172°
2026-04-28 20:22 33.73427 135.24731 14543 ft 407 kts 190°
2026-04-28 20:23 33.70691 135.24197 14965 ft 396 kts 200°
2026-04-28 20:23 33.67878 135.24041 15331 ft 420 kts 180°
2026-04-28 20:23 33.65012 135.25082 15736 ft 443 kts 161°
2026-04-28 20:23 33.62418 135.27205 16146 ft 463 kts 144°
2026-04-28 20:24 33.60345 135.30234 16565 ft 481 kts 126°
2026-04-28 20:24 33.58976 135.33953 16996 ft 495 kts 109°
2026-04-28 20:24 33.58452 135.38059 17447 ft 504 kts 92°
2026-04-28 20:24 33.58659 135.42268 17900 ft 507 kts 85°
2026-04-28 20:25 33.58962 135.46496 18315 ft 511 kts 88°
2026-04-28 20:25 33.58684 135.50743 18667 ft 509 kts 106°
2026-04-28 20:25 33.57659 135.54774 19078 ft 504 kts 115°
2026-04-28 20:25 33.56278 135.58627 19486 ft 504 kts 120°
2026-04-28 20:26 33.54702 135.62391 19896 ft 505 kts 123°
2026-04-28 20:26 33.53013 135.66077 20314 ft 504 kts 127°
2026-04-28 20:26 33.50940 135.69433 20728 ft 501 kts 134°
2026-04-28 20:26 33.48871 135.72829 21150 ft 508 kts 131°
2026-04-28 20:27 33.46761 135.76245 21565 ft 511 kts 131°
2026-04-28 20:27 33.45062 135.80042 21967 ft 526 kts 114°
2026-04-28 20:27 33.44212 135.84327 22408 ft 536 kts 98°
2026-04-28 20:27 33.44258 135.88811 22869 ft 543 kts 82°
2026-04-28 20:28 33.45182 135.93221 23360 ft 547 kts 70°
2026-04-28 20:28 33.46465 135.97461 23771 ft 552 kts 68°
2026-04-28 20:28 33.47798 136.01800 24140 ft 556 kts 69°
2026-04-28 20:28 33.49108 136.06176 24493 ft 559 kts 69°
2026-04-28 20:29 33.50395 136.10575 24873 ft 561 kts 70°
2026-04-28 20:29 33.51665 136.15009 25253 ft 564 kts 70°
2026-04-28 20:29 33.52641 136.19569 25633 ft 567 kts 78°
2026-04-28 20:29 33.53534 136.24190 26036 ft 571 kts 75°
2026-04-28 20:30 33.54431 136.28837 26440 ft 575 kts 77°
2026-04-28 20:30 33.55332 136.33530 26857 ft 579 kts 76°
2026-04-28 20:30 33.56242 136.38241 27278 ft 582 kts 77°
2026-04-28 20:30 33.57153 136.42985 27688 ft 585 kts 76°
2026-04-28 20:31 33.58066 136.47756 28112 ft 589 kts 76°
2026-04-28 20:31 33.58988 136.52561 28550 ft 592 kts 76°
2026-04-28 20:31 33.59897 136.57328 28998 ft 597 kts 76°
2026-04-28 20:31 33.60824 136.62196 29452 ft 600 kts 76°
2026-04-28 20:32 33.61765 136.67140 29908 ft 600 kts 76°
2026-04-28 20:32 33.62675 136.71950 30303 ft 597 kts 76°
2026-04-28 20:32 33.63595 136.76803 30688 ft 594 kts 76°
2026-04-28 20:32 33.64505 136.81632 31092 ft 591 kts 76°
2026-04-28 20:33 33.65409 136.86437 31502 ft 589 kts 76°
2026-04-28 20:33 33.66309 136.91222 31908 ft 588 kts 76°
2026-04-28 20:33 33.67209 136.96023 32329 ft 587 kts 76°
2026-04-28 20:33 33.68102 137.00803 32752 ft 586 kts 76°
2026-04-28 20:34 33.68994 137.05583 33201 ft 585 kts 77°
2026-04-28 20:34 33.69786 137.10365 33642 ft 583 kts 80°
2026-04-28 20:34 33.70240 137.15193 34061 ft 581 kts 90°
2026-04-28 20:34 33.70320 137.20029 34484 ft 579 kts 88°
2026-04-28 20:35 33.70505 137.24800 34776 ft 581 kts 88°
2026-04-28 20:35 33.70633 137.29666 34896 ft 584 kts 88°
2026-04-28 20:35 33.70782 137.34544 34950 ft 585 kts 88°
2026-04-28 20:36 33.71065 137.44261 34985 ft 580 kts 88°
2026-04-28 20:36 33.71340 137.53910 35001 ft 577 kts 88°
2026-04-28 20:37 33.71607 137.63553 35011 ft 578 kts 89°
2026-04-28 20:37 33.71867 137.73228 35011 ft 580 kts 89°
2026-04-28 20:38 33.72119 137.82900 35006 ft 579 kts 89°
2026-04-28 20:38 33.72364 137.92558 35007 ft 578 kts 89°
2026-04-28 20:39 33.72600 138.02200 35008 ft 578 kts 89°
2026-04-28 20:39 33.72829 138.11813 35007 ft 579 kts 89°
2026-04-28 20:40 33.73051 138.21480 35002 ft 579 kts 89°
2026-04-28 20:40 33.73265 138.31144 35002 ft 577 kts 89°
2026-04-28 20:41 33.73472 138.40791 35004 ft 578 kts 89°
2026-04-28 20:41 33.74037 138.50412 34999 ft 577 kts 74°
2026-04-28 20:41 33.75375 138.54921 35048 ft 572 kts 59°
2026-04-28 20:42 33.77428 138.59000 35089 ft 568 kts 51°
2026-04-28 20:42 33.81974 138.66804 35021 ft 573 kts 56°
2026-04-28 20:43 33.86064 138.74952 35006 ft 572 kts 55°
2026-04-28 20:43 33.90176 138.83149 34995 ft 571 kts 55°
2026-04-28 20:44 33.94295 138.91347 34998 ft 573 kts 55°
2026-04-28 20:44 33.98426 138.99585 34995 ft 575 kts 55°
2026-04-28 20:45 34.02549 139.07828 34993 ft 575 kts 56°
2026-04-28 20:45 34.06670 139.16083 34990 ft 574 kts 56°
2026-04-28 20:46 34.10790 139.24342 34985 ft 574 kts 54°
2026-04-28 20:46 34.14844 139.32668 34985 ft 575 kts 56°
2026-04-28 20:47 34.18880 139.41017 34984 ft 575 kts 57°
2026-04-28 20:47 34.22897 139.49368 34984 ft 575 kts 57°
2026-04-28 20:48 34.26914 139.57742 34981 ft 575 kts 57°
2026-04-28 20:48 34.30929 139.66128 34978 ft 577 kts 57°
2026-04-28 20:49 34.34946 139.74541 34973 ft 578 kts 57°
2026-04-28 20:49 34.38936 139.82913 34978 ft 578 kts 57°
2026-04-28 20:50 34.42945 139.91350 34959 ft 578 kts 57°
2026-04-28 20:50 34.46959 139.99813 34961 ft 580 kts 57°
2026-04-28 20:51 34.50977 140.08309 34965 ft 581 kts 57°
2026-04-28 20:51 34.54991 140.16813 34955 ft 581 kts 57°
2026-04-28 20:52 34.58999 140.25330 34950 ft 580 kts 57°
2026-04-28 20:52 34.62995 140.33838 34953 ft 580 kts 57°
2026-04-28 20:53 34.68991 140.46647 34956 ft 582 kts 57°
2026-04-28 20:53 34.72983 140.55200 34953 ft 582 kts 57°
2026-04-28 20:54 34.76970 140.63764 34948 ft 582 kts 57°
2026-04-28 20:54 34.80957 140.72347 34958 ft 583 kts 57°
2026-04-28 20:55 34.84948 140.80963 34957 ft 584 kts 57°
2026-04-28 20:55 34.88936 140.89594 34959 ft 585 kts 57°
2026-04-28 20:56 34.92892 140.98176 34955 ft 584 kts 57°
2026-04-28 20:56 34.96867 141.06819 34957 ft 585 kts 57°
2026-04-28 20:57 35.00845 141.15494 34960 ft 586 kts 57°
2026-04-28 20:57 35.04824 141.24192 34955 ft 586 kts 57°
2026-04-28 20:58 35.08792 141.32888 34953 ft 586 kts 58°
2026-04-28 20:58 35.12757 141.41598 34963 ft 586 kts 57°
2026-04-28 20:59 35.16713 141.50311 34964 ft 587 kts 58°
2026-04-28 20:59 35.20676 141.59061 34965 ft 587 kts 58°
2026-04-28 21:00 35.24601 141.67752 34969 ft 587 kts 58°
2026-04-28 21:00 35.28542 141.76500 34968 ft 587 kts 58°
2026-04-28 21:01 35.32484 141.85269 34973 ft 588 kts 58°
2026-04-28 21:01 35.36422 141.94058 34963 ft 589 kts 58°
2026-04-28 21:02 35.40361 142.02866 34963 ft 588 kts 58°
2026-04-28 21:02 35.44285 142.11669 34962 ft 588 kts 58°
2026-04-28 21:03 35.48207 142.20486 34964 ft 590 kts 58°
2026-04-28 21:03 35.52137 142.29347 34975 ft 590 kts 58°
2026-04-28 21:04 35.56058 142.38210 34976 ft 590 kts 58°
2026-04-28 21:04 35.59967 142.47066 34972 ft 590 kts 58°
2026-04-28 21:05 35.63215 142.54446 34975 ft 591 kts 58°
2026-04-28 21:05 35.67124 142.63348 34982 ft 591 kts 58°
2026-04-28 21:06 35.71030 142.72265 34977 ft 592 kts 58°
2026-04-28 21:06 35.74928 142.81191 34976 ft 591 kts 58°
2026-04-28 21:07 35.78792 142.90059 34977 ft 592 kts 58°
2026-04-28 21:07 35.82681 142.99011 34981 ft 593 kts 58°
2026-04-28 21:08 35.86568 143.07981 34980 ft 593 kts 58°
2026-04-28 21:08 35.90440 143.16944 34973 ft 592 kts 59°
2026-04-28 21:09 35.92499 143.21325 34956 ft 587 kts 48°
2026-04-28 21:09 35.95172 143.25032 35005 ft 573 kts 33°
2026-04-28 21:09 36.01606 143.30670 35023 ft 569 kts 28°
2026-04-28 21:10 36.07984 143.36562 34991 ft 571 kts 29°
2026-04-28 21:10 36.14349 143.42432 34973 ft 570 kts 29°
2026-04-28 21:11 36.20704 143.48288 34972 ft 570 kts 29°
2026-04-28 21:11 36.27040 143.54142 34976 ft 573 kts 29°
2026-04-28 21:12 36.33426 143.60054 34972 ft 572 kts 29°
2026-04-28 21:12 36.39799 143.65964 34968 ft 571 kts 29°
2026-04-28 21:13 36.46166 143.71882 34970 ft 572 kts 29°
2026-04-28 21:13 36.52547 143.77825 34970 ft 573 kts 29°
2026-04-28 21:14 36.58936 143.83789 34974 ft 574 kts 29°
2026-04-28 21:14 36.65317 143.89758 34967 ft 573 kts 29°
2026-04-28 21:15 36.71693 143.95734 34970 ft 574 kts 29°
2026-04-28 21:15 36.78075 144.01729 34974 ft 575 kts 29°
2026-04-28 21:16 36.84462 144.07741 34973 ft 575 kts 29°
2026-04-28 21:16 36.90846 144.13765 34966 ft 575 kts 29°
2026-04-28 21:17 36.97185 144.19756 34968 ft 575 kts 29°
2026-04-28 21:17 37.03563 144.25794 34970 ft 575 kts 29°
2026-04-28 21:18 37.09935 144.31863 34968 ft 576 kts 29°
2026-04-28 21:18 37.16308 144.37941 34974 ft 575 kts 29°
2026-04-28 21:19 37.22674 144.44025 34969 ft 575 kts 29°
2026-04-28 21:19 37.29038 144.50120 34964 ft 575 kts 29°
2026-04-28 21:20 37.35398 144.56224 34966 ft 576 kts 29°
2026-04-28 21:20 37.41768 144.62354 34969 ft 576 kts 29°
2026-04-28 21:21 37.48133 144.68489 34966 ft 576 kts 29°
2026-04-28 21:21 37.54492 144.74634 34967 ft 576 kts 29°
2026-04-28 21:22 37.60848 144.80789 34970 ft 577 kts 29°
2026-04-28 21:22 37.66140 144.85924 34970 ft 577 kts 29°
2026-04-28 21:23 37.73536 144.93115 34971 ft 577 kts 29°
2026-04-28 21:23 37.79894 144.99315 34970 ft 577 kts 29°
2026-04-28 21:24 37.86257 145.05529 34973 ft 578 kts 29°
2026-04-28 21:24 37.92628 145.11769 34969 ft 579 kts 29°
2026-04-28 21:25 37.99001 145.18024 34974 ft 580 kts 29°
2026-04-28 21:25 38.05334 145.24253 34970 ft 580 kts 29°
2026-04-28 21:26 38.11707 145.30536 34973 ft 580 kts 29°
2026-04-28 21:26 38.18092 145.36844 34981 ft 581 kts 29°
2026-04-28 21:27 38.24477 145.43169 34978 ft 582 kts 29°
2026-04-28 21:27 38.30876 145.49517 34974 ft 582 kts 29°
2026-04-28 21:28 38.37022 145.56343 34991 ft 589 kts 34°
2026-04-28 21:28 38.43058 145.63424 34982 ft 592 kts 35°
2026-04-28 21:29 38.49112 145.70572 34983 ft 592 kts 35°
2026-04-28 21:29 38.55151 145.77719 34980 ft 591 kts 35°
2026-04-28 21:30 38.61185 145.84879 34983 ft 592 kts 35°
2026-04-28 21:30 38.67192 145.92020 34985 ft 594 kts 35°
2026-04-28 21:31 38.73245 145.99238 34992 ft 595 kts 35°
2026-04-28 21:31 38.79302 146.06474 34979 ft 595 kts 35°
2026-04-28 21:32 38.85365 146.13738 34986 ft 596 kts 35°
2026-04-28 21:32 38.91428 146.21017 34988 ft 597 kts 35°
2026-04-28 21:33 38.97501 146.28329 34988 ft 598 kts 35°
2026-04-28 21:33 39.03562 146.35642 34984 ft 598 kts 35°
2026-04-28 21:34 39.09623 146.42974 34989 ft 598 kts 35°
2026-04-28 21:34 39.15689 146.50329 34995 ft 600 kts 35°
2026-04-28 21:35 39.21727 146.57671 34994 ft 601 kts 35°
2026-04-28 21:35 39.27803 146.65077 34997 ft 601 kts 35°
2026-04-28 21:36 39.33884 146.72505 34998 ft 602 kts 35°
2026-04-28 21:36 39.39967 146.79956 34998 ft 603 kts 35°
2026-04-28 21:37 39.46058 146.87437 35002 ft 604 kts 35°
2026-04-28 21:37 39.52154 146.94941 34999 ft 605 kts 35°
2026-04-28 21:38 39.58245 147.02458 34996 ft 605 kts 35°
2026-04-28 21:38 39.64334 147.09993 35003 ft 605 kts 35°
2026-04-28 21:39 39.70428 147.17553 35008 ft 606 kts 35°
2026-04-28 21:39 39.76530 147.25144 35011 ft 608 kts 35°
2026-04-28 21:40 39.82599 147.32711 35012 ft 608 kts 35°
2026-04-28 21:40 39.88710 147.40351 35019 ft 609 kts 35°
2026-04-28 21:41 39.94822 147.48012 35025 ft 611 kts 35°
2026-04-28 21:41 40.00945 147.55708 35019 ft 612 kts 35°
2026-04-28 21:42 40.07064 147.63419 35021 ft 612 kts 35°
2026-04-28 21:42 40.13187 147.71154 35020 ft 612 kts 35°
2026-04-28 21:43 40.19310 147.78910 35026 ft 613 kts 35°
2026-04-28 21:43 40.25441 147.86697 35032 ft 614 kts 35°
2026-04-28 21:44 40.31568 147.94501 35031 ft 615 kts 35°
2026-04-28 21:44 40.37696 148.02325 35036 ft 615 kts 35°
2026-04-28 21:45 40.43830 148.10180 35040 ft 616 kts 35°
2026-04-28 21:45 40.49972 148.18063 35043 ft 618 kts 35°
2026-04-28 21:46 40.56079 148.25926 35035 ft 619 kts 35°
2026-04-28 21:46 40.62223 148.33856 35037 ft 619 kts 35°
2026-04-28 21:47 40.68369 148.41812 35036 ft 619 kts 35°
2026-04-28 21:47 40.74522 148.49795 35044 ft 620 kts 35°
2026-04-28 21:48 40.80678 148.57808 35046 ft 622 kts 35°
2026-04-28 21:48 40.86795 148.65791 35052 ft 622 kts 35°
2026-04-28 21:49 40.92952 148.73847 35047 ft 623 kts 35°
2026-04-28 21:49 40.99114 148.81934 35051 ft 624 kts 35°
2026-04-28 21:50 41.05292 148.90063 35041 ft 626 kts 35°
2026-04-28 21:50 41.11465 148.98212 35059 ft 627 kts 35°
2026-04-28 21:51 41.17647 149.06401 35053 ft 628 kts 36°
2026-04-28 21:51 41.23827 149.14607 35054 ft 629 kts 36°
2026-04-28 21:52 41.30007 149.22840 35058 ft 630 kts 36°
2026-04-28 21:52 41.36197 149.31108 35056 ft 631 kts 36°
2026-04-28 21:53 41.42346 149.39344 35054 ft 632 kts 36°
2026-04-28 21:53 41.48540 149.47666 35048 ft 632 kts 36°
2026-04-28 21:54 41.54729 149.56002 35049 ft 632 kts 36°
2026-04-28 21:54 41.59915 149.63009 35049 ft 633 kts 36°
2026-04-28 21:55 41.66110 149.71401 35052 ft 634 kts 36°
2026-04-28 21:55 41.72270 149.79767 35054 ft 636 kts 36°
2026-04-28 21:56 41.78471 149.88217 35052 ft 636 kts 36°
2026-04-28 21:56 41.84668 149.96682 35050 ft 635 kts 36°
2026-04-28 21:57 41.90856 150.05163 35054 ft 636 kts 36°
2026-04-28 21:57 41.97052 150.13679 35053 ft 637 kts 36°
2026-04-28 21:58 42.03242 150.22214 35050 ft 637 kts 36°
2026-04-28 21:58 42.09426 150.30763 35050 ft 637 kts 36°
2026-04-28 21:59 42.15603 150.39329 35052 ft 636 kts 36°
2026-04-28 22:00 42.24801 150.52133 35053 ft 636 kts 36°
2026-04-28 22:00 42.30956 150.60731 35054 ft 636 kts 37°
2026-04-28 22:01 42.37100 150.69341 35052 ft 635 kts 37°
2026-04-28 22:01 42.43230 150.77956 35056 ft 634 kts 37°
2026-04-28 22:02 42.49348 150.86583 35052 ft 635 kts 37°
2026-04-28 22:02 42.55463 150.95227 35046 ft 634 kts 37°
2026-04-28 22:03 42.61520 151.03820 35044 ft 633 kts 37°
2026-04-28 22:03 42.67602 151.12470 35047 ft 633 kts 37°
2026-04-28 22:04 42.73678 151.21141 35039 ft 633 kts 37°
2026-04-28 22:04 42.79739 151.29815 35036 ft 632 kts 37°
2026-04-28 22:05 42.85785 151.38495 35036 ft 630 kts 37°
2026-04-28 22:05 42.91806 151.47166 35037 ft 629 kts 37°
2026-04-28 22:06 42.97811 151.55837 35033 ft 627 kts 38°
2026-04-28 22:06 43.03792 151.64504 35031 ft 626 kts 38°
2026-04-28 22:07 43.09762 151.73178 35024 ft 625 kts 38°
2026-04-28 22:07 43.15708 151.81845 35024 ft 624 kts 38°
2026-04-28 22:08 43.21599 151.90457 35018 ft 622 kts 38°
2026-04-28 22:08 43.27499 151.99110 35011 ft 620 kts 38°
2026-04-28 22:09 43.33376 152.07756 35015 ft 619 kts 39°
2026-04-28 22:09 43.39241 152.16407 35003 ft 618 kts 39°
2026-04-28 22:10 43.45085 152.25057 34997 ft 617 kts 39°
2026-04-28 22:10 43.50919 152.33715 34993 ft 617 kts 39°
2026-04-28 22:11 43.56750 152.42399 34994 ft 616 kts 39°
2026-04-28 22:11 43.62554 152.51067 34985 ft 613 kts 39°
2026-04-28 22:12 43.68289 152.59659 34981 ft 611 kts 40°
2026-04-28 22:12 43.74045 152.68307 34982 ft 611 kts 40°
2026-04-28 22:13 43.79802 152.76985 34975 ft 611 kts 40°
2026-04-28 22:13 43.85533 152.85650 34965 ft 609 kts 40°
2026-04-28 22:14 43.91237 152.94300 34966 ft 607 kts 40°
2026-04-28 22:14 43.96925 153.02954 34966 ft 606 kts 40°
2026-04-28 22:15 44.02599 153.11609 34960 ft 605 kts 41°
2026-04-28 22:15 44.08257 153.20270 34952 ft 604 kts 41°
2026-04-28 22:16 44.13856 153.28865 34948 ft 602 kts 41°
2026-04-28 22:16 44.19472 153.37515 34942 ft 602 kts 41°
2026-04-28 22:17 44.25088 153.46188 34938 ft 602 kts 41°
2026-04-28 22:17 44.30687 153.54865 34929 ft 601 kts 41°
2026-04-28 22:18 44.36264 153.63530 34924 ft 599 kts 42°
2026-04-28 22:18 44.41822 153.72196 34922 ft 597 kts 42°
2026-04-28 22:19 44.47356 153.80849 34913 ft 597 kts 42°
2026-04-28 22:19 44.52883 153.89520 34911 ft 596 kts 42°
2026-04-28 22:20 44.58396 153.98193 34901 ft 594 kts 42°
2026-04-28 22:20 44.63890 154.06865 34895 ft 593 kts 43°
2026-04-28 22:21 44.69328 154.15473 34889 ft 593 kts 43°
2026-04-28 22:21 44.74789 154.24147 34884 ft 592 kts 43°
2026-04-28 22:22 44.80238 154.32824 34875 ft 591 kts 43°
2026-04-28 22:22 44.85693 154.41471 34870 ft 590 kts 44°
2026-04-28 22:23 44.91021 154.50281 34860 ft 589 kts 44°
2026-04-28 22:23 44.96351 154.59069 34854 ft 589 kts 44°
2026-04-28 22:24 45.01670 154.67859 34844 ft 587 kts 44°
2026-04-28 22:24 45.06974 154.76649 34839 ft 586 kts 44°
2026-04-28 22:25 45.12220 154.85374 34834 ft 586 kts 45°
2026-04-28 22:25 45.17494 154.94168 34825 ft 586 kts 45°
2026-04-28 22:26 45.22767 155.02992 34819 ft 585 kts 45°
2026-04-28 22:26 45.28012 155.11794 34814 ft 584 kts 45°
2026-04-28 22:27 45.33244 155.20604 34811 ft 583 kts 45°
2026-04-28 22:27 45.38473 155.29435 34800 ft 584 kts 45°
2026-04-28 22:28 45.43692 155.38280 34793 ft 583 kts 45°
2026-04-28 22:28 45.48890 155.47114 34784 ft 581 kts 46°
2026-04-28 22:29 45.54076 155.55957 34779 ft 581 kts 46°
2026-04-28 22:29 45.59251 155.64807 34776 ft 581 kts 46°
2026-04-28 22:30 45.64420 155.73677 34768 ft 580 kts 46°
2026-04-28 22:30 45.69536 155.82484 34785 ft 579 kts 46°
2026-04-28 22:31 45.74669 155.91347 34751 ft 577 kts 46°
2026-04-28 22:31 45.79782 156.00204 34752 ft 577 kts 46°
2026-04-28 22:32 45.84885 156.09072 34744 ft 577 kts 47°
2026-04-28 22:32 45.89992 156.17976 34730 ft 577 kts 47°
2026-04-28 22:33 45.95084 156.26881 34727 ft 575 kts 47°
2026-04-28 22:33 46.00144 156.35760 34720 ft 574 kts 47°
2026-04-28 22:34 46.05193 156.44645 34716 ft 573 kts 47°
2026-04-28 22:34 46.10237 156.53552 34712 ft 573 kts 47°
2026-04-28 22:35 46.15264 156.62457 34705 ft 572 kts 48°
2026-04-28 22:35 46.20246 156.71312 34698 ft 570 kts 48°
2026-04-28 22:36 46.25238 156.80209 34694 ft 570 kts 48°
2026-04-28 22:36 46.30223 156.89125 34693 ft 570 kts 48°
2026-04-28 22:37 46.35210 156.98072 34690 ft 570 kts 49°
2026-04-28 22:37 46.40172 157.07005 34686 ft 569 kts 49°
2026-04-28 22:38 46.45122 157.15942 34681 ft 568 kts 49°
2026-04-28 22:38 46.50067 157.24901 34677 ft 569 kts 49°
2026-04-28 22:39 46.54982 157.33834 34674 ft 569 kts 49°
2026-04-28 22:39 46.59914 157.42827 34671 ft 569 kts 49°
2026-04-28 22:40 46.64833 157.51827 34668 ft 568 kts 49°
2026-04-28 22:40 46.69742 157.60835 34666 ft 567 kts 49°
2026-04-28 22:41 46.74638 157.69852 34666 ft 567 kts 49°
2026-04-28 22:41 46.79527 157.78881 34664 ft 567 kts 49°
2026-04-28 22:42 46.84397 157.87909 34659 ft 565 kts 49°
2026-04-28 22:42 46.89222 157.96879 34657 ft 563 kts 50°
2026-04-28 22:43 46.94055 158.05895 34658 ft 563 kts 50°
2026-04-28 22:43 46.98867 158.14903 34652 ft 561 kts 50°
2026-04-28 22:44 47.03651 158.23885 34648 ft 558 kts 50°
2026-04-28 22:44 47.07644 158.31404 34654 ft 557 kts 50°
2026-04-28 22:45 47.12368 158.40326 34668 ft 557 kts 50°
2026-04-28 22:45 47.17115 158.49322 34654 ft 556 kts 50°
2026-04-28 22:46 47.21839 158.58304 34646 ft 554 kts 51°
2026-04-28 22:46 47.26542 158.67277 34651 ft 554 kts 51°
2026-04-28 22:47 47.31242 158.76273 34657 ft 554 kts 51°
2026-04-28 22:47 47.35933 158.85277 34656 ft 553 kts 51°
2026-04-28 22:48 47.40605 158.94278 34652 ft 552 kts 51°
2026-04-28 22:48 47.45266 159.03286 34656 ft 551 kts 51°
2026-04-28 22:49 47.49916 159.12304 34660 ft 552 kts 51°
2026-04-28 22:49 47.54558 159.21333 34660 ft 551 kts 51°
2026-04-28 22:50 47.59184 159.30363 34657 ft 549 kts 51°
2026-04-28 22:50 47.63784 159.39372 34658 ft 547 kts 51°
2026-04-28 22:51 47.68340 159.48325 34659 ft 547 kts 52°
2026-04-28 22:51 47.72915 159.57342 34660 ft 546 kts 52°
2026-04-28 22:52 47.77474 159.66360 34658 ft 545 kts 52°
2026-04-28 22:52 47.82015 159.75370 34656 ft 544 kts 52°
2026-04-28 22:53 47.86546 159.84390 34658 ft 543 kts 52°
2026-04-28 22:53 47.91066 159.93418 34662 ft 543 kts 52°
2026-04-28 22:54 47.95574 160.02452 34655 ft 542 kts 52°
2026-04-28 22:54 48.00063 160.11480 34655 ft 541 kts 52°
2026-04-28 22:55 48.04545 160.20521 34654 ft 540 kts 53°
2026-04-28 22:55 48.08982 160.29503 34657 ft 541 kts 53°
2026-04-28 22:56 48.13441 160.38556 34662 ft 540 kts 53°
2026-04-28 22:56 48.17884 160.47614 34669 ft 539 kts 53°
2026-04-28 22:57 48.22319 160.56678 34667 ft 538 kts 53°
2026-04-28 22:57 48.26767 160.65710 34648 ft 538 kts 52°
2026-04-28 22:58 48.31046 160.74934 34649 ft 538 kts 55°
2026-04-28 22:58 48.35309 160.84171 34649 ft 538 kts 55°
2026-04-28 22:59 48.39557 160.93420 34645 ft 536 kts 56°
2026-04-28 22:59 48.43789 161.02662 34650 ft 535 kts 56°
2026-04-28 23:00 48.47981 161.11848 34650 ft 536 kts 56°
2026-04-28 23:00 48.52199 161.21120 34659 ft 536 kts 56°
2026-04-28 23:01 48.56413 161.30417 34655 ft 537 kts 56°
2026-04-28 23:01 48.60612 161.39713 34663 ft 535 kts 56°
2026-04-28 23:02 48.64806 161.49029 34680 ft 536 kts 56°
2026-04-28 23:02 48.68997 161.58369 34686 ft 537 kts 57°
2026-04-28 23:03 48.73181 161.67713 34626 ft 535 kts 56°
2026-04-28 23:03 48.77321 161.77067 34617 ft 535 kts 57°
2026-04-28 23:04 48.81499 161.86427 34630 ft 537 kts 57°
2026-04-28 23:04 48.87738 162.00541 34631 ft 536 kts 57°
2026-04-28 23:05 48.91879 162.09952 34634 ft 536 kts 57°
2026-04-28 23:05 48.96023 162.19400 34638 ft 537 kts 58°
2026-04-28 23:06 49.00163 162.28874 34639 ft 537 kts 58°
2026-04-28 23:06 49.04292 162.38354 34638 ft 536 kts 58°
2026-04-28 23:07 49.08379 162.47773 34639 ft 536 kts 58°
2026-04-28 23:07 49.12488 162.57273 34638 ft 537 kts 58°
2026-04-28 23:08 49.16599 162.66817 34635 ft 537 kts 59°
2026-04-28 23:08 49.20698 162.76362 34637 ft 536 kts 59°
2026-04-28 23:09 49.24784 162.85913 34635 ft 536 kts 59°
2026-04-28 23:09 49.28866 162.95487 34641 ft 537 kts 59°
2026-04-28 23:10 49.32944 163.05089 34633 ft 538 kts 59°
2026-04-28 23:10 49.37013 163.14702 34637 ft 537 kts 59°
2026-04-28 23:11 49.41070 163.24324 34667 ft 537 kts 59°
2026-04-28 23:11 49.45098 163.33909 34626 ft 537 kts 60°
2026-04-28 23:12 49.49138 163.43562 34623 ft 536 kts 60°
2026-04-28 23:12 49.53165 163.53214 34627 ft 537 kts 60°
2026-04-28 23:13 49.57196 163.62911 34631 ft 537 kts 60°
2026-04-28 23:13 49.61217 163.72624 34632 ft 537 kts 60°
2026-04-28 23:14 49.65227 163.82341 34629 ft 536 kts 60°
2026-04-28 23:14 49.69230 163.92083 34641 ft 537 kts 60°
2026-04-28 23:15 49.73222 164.01829 34632 ft 537 kts 60°
2026-04-28 23:15 49.77188 164.11548 34630 ft 537 kts 60°
2026-04-28 23:16 49.81159 164.21316 34633 ft 536 kts 60°
2026-04-28 23:16 49.85125 164.31109 34636 ft 537 kts 60°
2026-04-28 23:17 49.89092 164.40938 34636 ft 537 kts 60°
2026-04-28 23:17 49.93049 164.50784 34635 ft 537 kts 60°
2026-04-28 23:18 49.96995 164.60633 34653 ft 537 kts 61°
2026-04-28 23:18 50.00938 164.70517 34631 ft 538 kts 61°
2026-04-28 23:19 50.04852 164.80360 34621 ft 538 kts 61°
2026-04-28 23:19 50.08774 164.90267 34626 ft 538 kts 61°
2026-04-28 23:20 50.12698 165.00212 34628 ft 539 kts 61°
2026-04-28 23:20 50.16637 165.10166 34624 ft 539 kts 61°
2026-04-28 23:21 50.20488 165.20200 34623 ft 539 kts 61°
2026-04-28 23:21 50.24350 165.30245 34626 ft 540 kts 62°
2026-04-28 23:22 50.27557 165.38622 34629 ft 541 kts 62°
2026-04-28 23:22 50.32062 165.50437 34635 ft 541 kts 62°
2026-04-28 23:23 50.35909 165.60567 34623 ft 541 kts 62°
2026-04-28 23:23 50.39743 165.70705 34626 ft 541 kts 62°
2026-04-28 23:24 50.43572 165.80867 34625 ft 541 kts 62°
2026-04-28 23:24 50.47390 165.91046 34626 ft 542 kts 62°
2026-04-28 23:25 50.51204 166.01244 34635 ft 540 kts 62°
2026-04-28 23:25 50.54963 166.11344 34621 ft 537 kts 62°
2026-04-28 23:26 50.58731 166.21507 34628 ft 539 kts 62°
2026-04-28 23:26 50.62508 166.31729 34628 ft 540 kts 62°
2026-04-28 23:27 50.66274 166.41965 34624 ft 540 kts 62°
2026-04-28 23:27 50.70026 166.52204 34625 ft 539 kts 62°
2026-04-28 23:28 50.73770 166.62462 34648 ft 539 kts 62°
2026-04-28 23:28 50.77513 166.72757 34638 ft 541 kts 62°
2026-04-28 23:29 50.81241 166.83054 34624 ft 538 kts 62°
2026-04-28 23:29 50.84951 166.93343 34629 ft 538 kts 62°
2026-04-28 23:30 50.88636 167.03600 34630 ft 540 kts 62°
2026-04-28 23:30 50.92335 167.13943 34634 ft 539 kts 62°
2026-04-28 23:31 50.95401 167.22544 34629 ft 538 kts 62°
2026-04-28 23:31 50.99071 167.32883 34631 ft 538 kts 62°
2026-04-28 23:32 51.02737 167.43248 34629 ft 539 kts 62°
2026-04-28 23:32 51.06394 167.53633 34625 ft 538 kts 62°
2026-04-28 23:33 51.10038 167.64020 34629 ft 537 kts 62°
2026-04-28 23:33 51.13665 167.74405 34633 ft 537 kts 62°
2026-04-28 23:34 51.17284 167.84808 34632 ft 537 kts 62°
2026-04-28 23:34 51.20897 167.95237 34633 ft 537 kts 62°
2026-04-28 23:35 51.24496 168.05671 34637 ft 536 kts 62°
2026-04-28 23:35 51.28090 168.16128 34665 ft 537 kts 63°
2026-04-28 23:36 51.31655 168.26549 34626 ft 536 kts 62°
2026-04-28 23:36 51.35219 168.37010 34628 ft 535 kts 63°
2026-04-28 23:37 51.38773 168.47482 34647 ft 536 kts 63°
2026-04-28 23:37 51.42325 168.57995 34628 ft 537 kts 63°
2026-04-28 23:38 51.45869 168.68526 34637 ft 535 kts 63°
2026-04-28 23:38 51.49392 168.79042 34633 ft 535 kts 63°
2026-04-28 23:39 51.52907 168.89575 34650 ft 536 kts 63°
2026-04-28 23:39 51.56417 169.00142 34648 ft 536 kts 63°
2026-04-28 23:40 51.59915 169.10713 34649 ft 535 kts 63°
2026-04-28 23:40 51.63396 169.21282 34630 ft 535 kts 63°
2026-04-28 23:41 51.66854 169.31821 34651 ft 535 kts 63°
2026-04-28 23:41 51.70323 169.42446 34640 ft 535 kts 63°
2026-04-28 23:42 51.73780 169.53075 34645 ft 535 kts 63°
2026-04-28 23:42 51.77228 169.63723 34640 ft 535 kts 63°
2026-04-28 23:43 51.80667 169.74385 34656 ft 536 kts 63°
2026-04-28 23:43 51.84103 169.85090 34657 ft 535 kts 63°
2026-04-28 23:44 51.87524 169.95793 34658 ft 535 kts 63°
2026-04-28 23:44 51.90908 170.06427 34660 ft 534 kts 63°
2026-04-28 23:45 51.94307 170.17151 34646 ft 535 kts 63°
2026-04-28 23:45 51.97696 170.27896 34638 ft 535 kts 63°
2026-04-28 23:46 52.01078 170.38663 34652 ft 535 kts 63°
2026-04-28 23:46 52.04445 170.49431 34656 ft 534 kts 63°
2026-04-28 23:47 52.07802 170.60212 34657 ft 534 kts 63°
2026-04-28 23:47 52.11229 170.70948 34642 ft 535 kts 57°
2026-04-28 23:48 52.15634 170.80657 34681 ft 533 kts 47°
2026-04-28 23:48 52.20456 170.89771 34661 ft 535 kts 48°
2026-04-28 23:49 52.25318 170.98960 34661 ft 535 kts 48°
2026-04-28 23:49 52.30163 171.08170 34656 ft 534 kts 48°
2026-04-28 23:50 52.34999 171.17402 34669 ft 535 kts 48°
2026-04-28 23:50 52.39841 171.26675 34673 ft 536 kts 48°
2026-04-28 23:51 52.44675 171.35969 34670 ft 535 kts 48°
2026-04-28 23:51 52.49497 171.45275 34675 ft 535 kts 48°
2026-04-28 23:52 52.54317 171.54611 34675 ft 536 kts 48°
2026-04-28 23:52 52.59137 171.63980 34685 ft 536 kts 48°
2026-04-28 23:53 52.63914 171.73303 34682 ft 536 kts 48°
2026-04-28 23:53 52.68715 171.82704 34688 ft 536 kts 49°
2026-04-28 23:54 52.73510 171.92133 34690 ft 537 kts 49°
2026-04-28 23:54 52.78303 172.01590 34686 ft 538 kts 49°
2026-04-28 23:55 52.83095 172.11086 34686 ft 537 kts 49°
2026-04-28 23:55 52.87880 172.20598 34686 ft 537 kts 49°
2026-04-28 23:56 52.92659 172.30138 34686 ft 538 kts 49°
2026-04-28 23:56 52.97436 172.39707 34692 ft 539 kts 49°
2026-04-28 23:57 53.02204 172.49300 34689 ft 539 kts 49°
2026-04-28 23:57 53.06971 172.58923 34692 ft 539 kts 49°
2026-04-28 23:58 53.11730 172.68571 34692 ft 539 kts 49°
2026-04-28 23:58 53.16489 172.78251 34695 ft 540 kts 49°
2026-04-28 23:59 53.21244 172.87964 34696 ft 540 kts 49°
2026-04-28 23:59 53.25989 172.97693 34698 ft 540 kts 49°
2026-04-29 00:00 53.30733 173.07461 34699 ft 541 kts 49°
2026-04-29 00:00 53.35474 173.17256 34700 ft 542 kts 49°
2026-04-29 00:01 53.40210 173.27085 34699 ft 542 kts 49°
2026-04-29 00:01 53.44915 173.36880 34702 ft 542 kts 49°
2026-04-29 00:02 53.49640 173.46762 34706 ft 543 kts 49°
2026-04-29 00:02 53.54276 173.56812 34690 ft 546 kts 56°
2026-04-29 00:03 53.58362 173.67579 34708 ft 547 kts 56°
2026-04-29 00:03 53.62460 173.78402 34703 ft 548 kts 56°
2026-04-29 00:04 53.66553 173.89217 34695 ft 546 kts 56°
2026-04-29 00:04 53.70626 174.00028 34700 ft 546 kts 56°
2026-04-29 00:05 53.74699 174.10883 34704 ft 548 kts 56°
2026-04-29 00:05 53.78767 174.21774 34706 ft 548 kts 56°
2026-04-29 00:06 53.82824 174.32683 34704 ft 547 kts 56°
2026-04-29 00:06 53.86864 174.43594 34702 ft 547 kts 56°
2026-04-29 00:07 53.90903 174.54545 34701 ft 548 kts 56°
2026-04-29 00:07 53.94935 174.65533 34703 ft 549 kts 56°
2026-04-29 00:08 53.98955 174.76534 34701 ft 548 kts 56°
2026-04-29 00:08 54.02962 174.87547 34702 ft 547 kts 56°
2026-04-29 00:09 54.06961 174.98588 34704 ft 548 kts 56°
2026-04-29 00:09 54.10924 175.09579 34704 ft 548 kts 56°
2026-04-29 00:10 54.14904 175.20667 34703 ft 548 kts 56°
2026-04-29 00:10 54.18873 175.31768 34706 ft 548 kts 56°
2026-04-29 00:11 54.22832 175.42899 34705 ft 549 kts 56°
2026-04-29 00:12 54.28760 175.59655 34702 ft 549 kts 56°
2026-04-29 00:12 54.32702 175.70857 34700 ft 549 kts 56°
2026-04-29 00:13 54.36634 175.82091 34698 ft 549 kts 56°
2026-04-29 00:13 54.40560 175.93350 34696 ft 550 kts 56°
2026-04-29 00:14 54.44480 176.04651 34701 ft 550 kts 56°
2026-04-29 00:14 54.48387 176.15961 34698 ft 550 kts 56°
2026-04-29 00:15 54.52256 176.27214 34701 ft 550 kts 56°
2026-04-29 00:15 54.56149 176.38593 34707 ft 551 kts 56°
2026-04-29 00:16 54.60028 176.49976 34699 ft 551 kts 56°
2026-04-29 00:16 54.63238 176.59444 34699 ft 550 kts 56°
2026-04-29 00:17 54.67095 176.70863 34699 ft 550 kts 56°
2026-04-29 00:17 54.70938 176.82297 34701 ft 550 kts 56°
2026-04-29 00:18 54.74773 176.93759 34702 ft 550 kts 56°
2026-04-29 00:18 54.78597 177.05244 34702 ft 550 kts 56°
2026-04-29 00:19 54.82407 177.16739 34698 ft 550 kts 56°
2026-04-29 00:19 54.86207 177.28256 34702 ft 550 kts 56°
2026-04-29 00:20 54.89999 177.39811 34699 ft 551 kts 56°
2026-04-29 00:20 54.93784 177.51394 34705 ft 551 kts 56°
2026-04-29 00:21 54.97533 177.62924 34690 ft 551 kts 56°
2026-04-29 00:21 55.01322 177.74631 34693 ft 551 kts 57°
2026-04-29 00:22 55.05054 177.86225 34697 ft 552 kts 57°